Flag Weather past 2 weeks in Qadian, Punjab, India

Now
79 °F

Haze.


Feels Like: 79 °F
Forecast: 53 / 80 °F
Wind: No wind

Location: Amritsar Airport

Current Time: Nov 29, 2014 at 2:32:15 PM

Latest Report: Nov 29, 2014 at 1:30 PM


Visibility: 4 mi

Pressure: 29.95 "Hg

Humidity: 32%

Dew point: 46 °F

Location of QadianLocation

Historic Weather in Qadian — Graph

°F

Qadian temperature yesterday

Maximum temperature yesterday: 77 °F (at 2:30 PM)
Minimum temperature yesterday: 52 °F (at 7:30 AM)
Average temperature yesterday: 66 °F

Past Weeks' High & Low Weather Summary

 TemperatureHumidityPressure
High79 °F (Nov 14, 1:00 PM)100% (Nov 15, 4:00 AM)30.12 "Hg (Nov 15, 4:00 AM)
Low45 °F (Nov 25, 6:30 AM)24% (Nov 14, 2:00 PM)29.80 "Hg (Nov 26, 4:30 PM)
Average61 °F70%29.98 "Hg
* Reported Nov 14 12:30 PM — Nov 29 1:00 PM, Qadian, Weather by CustomWeather, © 2014

Note: Actual official high and low records may vary slightly from our data, if they occured in-between our weather recording intervals... More about our weather records

Advertising

Qadian weather history for previous 24 hours

 ConditionsComfort  
Time TempWeatherWind HumidityBarometerVisibility
1:00 PM
Nov 29
79 °FHaze.1 mph32%29.98 "Hg3 mi
12:30 PM79 °FHaze.No wind32%29.98 "Hg3 mi
12:00 PM75 °FHaze.No wind41%30.01 "Hg3 mi
11:30 AM75 °FHaze.No wind44%30.01 "Hg2 mi
11:00 AM75 °FHaze.No wind47%30.01 "Hg2 mi
10:30 AM72 °FHaze.No wind50%30.04 "Hg2 mi
10:00 AM66 °FHaze.No wind60%30.01 "Hg2 mi
9:30 AM63 °FFog.3 mph73%30.01 "Hg1 mi
8:30 AM57 °FFog.No wind94%29.98 "Hg1 mi
8:00 AM54 °FFog.No wind94%29.98 "Hg1 mi
7:30 AM52 °FFog.No wind100%29.98 "Hg1 mi
7:00 AM54 °FFog.No wind94%29.95 "Hg1 mi
6:30 AM54 °FFog.3 mph94%29.95 "Hg1 mi
6:00 AM54 °FFog.No wind94%29.95 "Hg1 mi
5:30 AM52 °FFog.No wind94%29.92 "Hg1 mi
5:00 AM55 °FFog.No wind88%29.92 "Hg1 mi
4:30 AM55 °FFog.No wind88%29.92 "Hg1 mi
4:00 AM55 °FFog.No wind82%29.92 "Hg1 mi
3:30 AM55 °FFog.No wind88%29.92 "Hg1 mi
3:00 AM55 °FFog.No wind82%29.92 "Hg1 mi
2:30 AM55 °FFog.No wind88%29.92 "Hg1 mi
2:00 AM57 °FFog.No wind82%29.92 "Hg1 mi
1:30 AM57 °FFog.2 mph82%29.92 "Hg1 mi
1:00 AM57 °FFog.3 mph82%29.92 "Hg1 mi
12:30 AM57 °FFog.No wind82%29.92 "Hg1 mi
12:00 AM57 °FFog.No wind82%29.92 "Hg1 mi
11:30 PM
Nov 28
57 °FFog.No wind88%29.92 "Hg1 mi
11:00 PM59 °FFog.No wind82%29.95 "Hg1 mi
10:30 PM59 °FFog.No wind82%29.92 "Hg1 mi
10:00 PM59 °FFog.2 mph82%29.92 "Hg1 mi
9:00 PM59 °FFog.No wind88%29.92 "Hg1 mi
8:30 PM61 °FFog.No wind77%29.92 "Hg1 mi
8:00 PM61 °FPassing clouds.No wind72%29.92 "Hg2 mi
7:30 PM61 °FPassing clouds.No wind72%29.92 "Hg2 mi
7:00 PM63 °FPassing clouds.No wind68%29.89 "Hg2 mi
6:30 PM66 °FPassing clouds.No wind60%29.89 "Hg2 mi
6:00 PM66 °FPassing clouds.No wind56%29.89 "Hg2 mi
5:30 PM72 °FScattered clouds.No wind50%29.89 "Hg2 mi
5:00 PM73 °FScattered clouds.No wind47%29.89 "Hg2 mi
4:30 PM75 °FScattered clouds.2 mph44%29.89 "Hg2 mi
4:00 PM77 °FScattered clouds.3 mph42%29.89 "Hg2 mi
3:30 PM77 °FScattered clouds.3 mph39%29.89 "Hg2 mi
3:00 PM77 °FScattered clouds.3 mph39%29.92 "Hg2 mi
2:30 PM77 °FScattered clouds.6 mph39%29.92 "Hg2 mi
2:00 PM75 °FScattered clouds.5 mph41%29.92 "Hg2 mi
Weather by CustomWeather, © 2014

See weather overviewHow to use our weather pages